Ingeniero Ambrosio Taravella Airport

Jump to: basic info | weather | frequencies | runways | comments

Related pages: nearby airports | nearby navaids | notams | map

Basic information (top)

Codes: COR SACO CBA
Location: lon -31.323601, lat -64.208000, elev 1,604 ft / 489 m msl
Status: medium_airport
Scheduled airline service: yes
Links: Wikipedia Mobile

Weather (top)

Current conditions (rec'd 2014/11/27 11:00Z):

SACO 271100Z 02008KT CAVOK 21/14 Q1019

Airport forecast (rec'd 2014/11/27 06:10Z):

TAF SACO 270500Z 2706/2806 36005KT 9999 SCT020 FEW040CB TX30/2718Z TN18/2710Z

Frequencies (top)

Verify before use: may be inaccurate or out of date.

ATIS: 114.5 MHz (ATIS)
GND: 121.75 MHz (GND)
MISC: 342.55 MHz (METAR NOTAM)
TWR: 118.3 MHz (CORDOBA TWR/APP)

Runways (top)

05/23: 7,218 x 148 ft (2,200 x 45 m) — paved — not lighted — threshold 05 displaced 840 ft (256 m)

18/36: 10,499 x 148 ft (3,200 x 45 m) — paved — lighted

Latest comments (top)

No comments yet for Ingeniero Ambrosio Taravella Airport

More... (top)

See also NOTAMs and nearby airports and navaids, or visit the Ingeniero Ambrosio Taravella Airport page at the main OurAirports website..